Temp
-11 -11 -10 -10 -9 -9 -9 -8 -8 -7 -6 -6 -6 -5 -5 -5 -4 -4 -3 -3 -2 -2 -1 -1 -0 -0 -0 0 1 1 1 1 1 1 2 -0 0 0
-12 -12 -12 -11 -11 -10 -10 -8 -7 -7 -7 -6 -5 -6 -6 -5 -4 -4 -4 -3 -3 -2 -2 -1 -1 -1 -0 -0 0 1 1 1 1 1 0 0 0 0
-13 -14 -13 -13 -12 -11 -10 -9 -8 -7 -7 -6 -6 -6 -6 -6 -6 -5 -4 -4 -3 -2 -2 -1 -1 -1 -1 -0 -0 0 0 1 1 1 1 0 0 0
-14 -14 -14 -13 -13 -12 -11 -9 -8 -8 -7 -7 -7 -7 -7 -6 -6 -6 -5 -5 -3 -3 -2 -2 -1 -1 -1 -1 -0 0 0 1 1 1 0 1 1 -1
-15 -15 -15 -14 -14 -13 -12 -11 -9 -8 -8 -7 -7 -7 -7 -7 -7 -6 -6 -5 -3 -3 -3 -2 -2 -2 -1 -1 -1 -0 -0 0 1 0 0 -0 -1 -1
-16 -15 -15 -15 -14 -13 -12 -10 -10 -9 -8 -7 -7 -8 -8 -7 -7 -7 -6 -5 -4 -3 -3 -3 -2 -2 -2 -1 -1 -1 -0 0 0 -0 -0 -0 -0 -0
-15 -15 -15 -15 -14 -14 -12 -11 -10 -8 -8 -8 -8 -8 -8 -8 -7 -7 -6 -6 -5 -4 -3 -3 -2 -2 -2 -1 -1 -1 -1 -0 0 0 -1 -0 -0 -0
-15 -15 -15 -15 -14 -14 -12 -11 -9 -9 -9 -8 -8 -8 -7 -8 -8 -7 -6 -6 -6 -4 -4 -3 -2 -2 -2 -2 -2 -1 -1 -1 -0 -0 0 -1 -1 -1
-15 -15 -15 -15 -14 -14 -13 -12 -10 -9 -10 -9 -8 -8 -8 -8 -8 -7 -7 -8 -7 -6 -6 -4 -3 -3 -2 -2 -2 -1 -1 -1 -0 -0 -1 -0 -0 -0
-15 -15 -15 -15 -15 -14 -12 -11 -11 -11 -10 -9 -8 -8 -8 -8 -7 -7 -8 -7 -8 -8 -6 -4 -4 -3 -2 -2 -2 -1 -1 -1 -1 -1 -1 -1 -1 -1
-15 -15 -15 -15 -14 -14 -12 -11 -12 -10 -10 -9 -9 -9 -9 -8 -7 -8 -8 -8 -8 -8 -7 -6 -5 -3 -3 -2 -2 -2 -1 -1 -1 -1 -0 -1 -1 -1
-15 -15 -15 -15 -14 -13 -13 -12 -12 -10 -10 -9 -9 -9 -9 -8 -8 -8 -8 -9 -9 -8 -7 -7 -7 -6 -4 -2 -2 -2 -2 -1 -1 -2 -2 -1 -1 -0
-15 -15 -14 -14 -14 -13 -12 -12 -12 -11 -10 -10 -10 -9 -9 -9 -8 -8 -8 -8 -8 -8 -7 -6 -6 -6 -6 -4 -3 -2 -2 -2 -1 -1 -1 -2 -1 -1
-13 -13 -13 -13 -13 -12 -12 -12 -11 -10 -10 -10 -10 -9 -9 -9 -8 -9 -8 -8 -8 -7 -7 -6 -6 -6 -6 -5 -3 -2 -2 -2 -1 -1 -1 -1 -2 -1
-12 -12 -12 -12 -12 -11 -11 -11 -10 -10 -10 -10 -10 -10 -9 -9 -9 -9 -9 -8 -8 -8 -7 -7 -6 -6 -7 -5 -3 -3 -2 -2 -1 -1 -1 -1 -1 -2
-11 -11 -11 -11 -11 -11 -10 -10 -10 -10 -10 -10 -10 -9 -9 -9 -9 -9 -8 -8 -8 -8 -8 -7 -7 -7 -7 -6 -3 -3 -2 -2 -1 -1 -1 -1 -2 -2
-11 -11 -11 -11 -11 -11 -11 -11 -11 -11 -10 -10 -10 -9 -9 -9 -9 -9 -8 -8 -8 -8 -8 -7 -7 -7 -8 -5 -3 -3 -2 -2 -1 -1 -1 -1 -1 -2
-11 -11 -11 -11 -11 -11 -11 -11 -11 -11 -11 -10 -10 -10 -9 -9 -9 -9 -8 -8 -8 -8 -7 -7 -7 -6 -5 -4 -3 -3 -2 -2 -1 -1 -1 -1 -2 -2
-11 -11 -11 -11 -11 -11 -11 -11 -11 -11 -10 -10 -10 -10 -10 -10 -9 -9 -8 -8 -8 -8 -7 -6 -5 -5 -5 -5 -4 -4 -2 -2 -1 -1 -1 -1 -2 -2
-11 -12 -11 -11 -11 -11 -11 -11 -11 -11 -10 -10 -10 -10 -10 -10 -9 -9 -8 -9 -9 -7 -6 -6 -6 -7 -7 -6 -6 -5 -3 -2 -2 -1 -1 -2 -2 -2
-11 -11 -11 -11 -12 -12 -11 -11 -11 -11 -10 -10 -10 -10 -10 -10 -9 -9 -9 -9 -8 -8 -7 -6 -7 -6 -7 -6 -6 -6 -6 -4 -2 -2 -2 -3 -3 -2
-11 -11 -11 -10 -10 -10 -11 -11 -11 -10 -10 -10 -10 -10 -10 -10 -9 -9 -9 -9 -8 -9 -9 -7 -7 -6 -5 -6 -6 -5 -5 -4 -4 -3 -2 -2 -3 -2
-9 -10 -10 -10 -10 -10 -10 -9 -9 -9 -9 -9 -9 -9 -9 -9 -8 -8 -8 -8 -8 -8 -9 -8 -8 -6 -6 -5 -7 -6 -5 -5 -5 -4 -4 -3 -2 -3
Height
2967 2970 2973 2978 2983 2987 2992 2999 3006 3010 3014 3020 3026 3033 3039 3042 3047 3051 3054 3056 3060 3062 3065 3069 3074 3079 3084 3089 3093 3099 3105 3109 3115 3121 3123 3127 3131 3135
2954 2957 2959 2963 2968 2974 2981 2987 2991 2999 3004 3012 3017 3023 3028 3034 3039 3044 3047 3049 3052 3055 3058 3062 3067 3072 3077 3082 3087 3092 3098 3103 3108 3115 3114 3121 3125 3130
2943 2944 2947 2950 2955 2961 2967 2973 2980 2988 2996 3003 3009 3013 3019 3025 3029 3035 3039 3041 3044 3048 3051 3055 3060 3065 3070 3076 3081 3086 3092 3098 3103 3108 3114 3117 3122 3126
2933 2933 2936 2938 2943 2949 2954 2961 2969 2978 2985 2993 3000 3006 3012 3018 3023 3029 3031 3033 3037 3041 3044 3048 3053 3058 3064 3070 3075 3080 3086 3092 3098 3102 3104 3113 3115 3119
2925 2925 2925 2928 2932 2938 2944 2951 2961 2968 2975 2984 2992 2999 3006 3011 3017 3022 3026 3027 3031 3034 3037 3041 3046 3051 3057 3063 3069 3074 3080 3087 3092 3097 3103 3106 3108 3112
2916 2916 2916 2918 2922 2928 2934 2943 2951 2960 2968 2976 2984 2992 3001 3006 3012 3017 3021 3022 3024 3027 3031 3035 3040 3045 3051 3057 3063 3068 3074 3080 3086 3091 3097 3102 3103 3108
2907 2907 2908 2910 2914 2921 2928 2938 2946 2953 2962 2971 2979 2986 2995 3000 3006 3013 3016 3016 3018 3022 3026 3030 3035 3039 3046 3052 3058 3063 3069 3076 3081 3086 3092 3097 3101 3105
2899 2900 2901 2903 2909 2915 2922 2931 2939 2949 2956 2965 2974 2982 2990 2995 3002 3007 3010 3012 3014 3017 3021 3025 3029 3034 3040 3046 3052 3057 3063 3070 3075 3080 3086 3092 3096 3101
2894 2896 2897 2900 2905 2911 2915 2926 2935 2944 2953 2962 2970 2977 2982 2990 2998 3001 3006 3008 3011 3014 3017 3021 3025 3029 3034 3041 3046 3052 3057 3063 3068 3074 3081 3087 3091 3095
2893 2893 2896 2900 2904 2909 2913 2923 2932 2944 2951 2958 2966 2973 2982 2987 2995 3000 3003 3007 3010 3010 3013 3016 3020 3024 3030 3036 3041 3046 3052 3058 3063 3068 3074 3080 3083 3090
2892 2893 2894 2899 2903 2908 2913 2922 2932 2942 2949 2958 2965 2971 2979 2987 2993 2996 2998 3003 3007 3010 3012 3014 3017 3021 3026 3030 3035 3041 3046 3051 3057 3063 3068 3073 3080 3084
2894 2893 2895 2898 2902 2907 2913 2922 2931 2941 2949 2957 2964 2972 2978 2985 2990 2993 2997 3001 3004 3007 3011 3014 3017 3019 3021 3026 3031 3036 3040 3045 3051 3056 3062 3067 3073 3077
2896 2896 2897 2900 2903 2908 2914 2923 2933 2941 2949 2957 2964 2970 2977 2983 2988 2991 2994 2998 3001 3004 3008 3011 3014 3016 3018 3021 3024 3029 3034 3039 3045 3050 3056 3062 3067 3072
2898 2898 2900 2902 2906 2911 2917 2925 2933 2940 2950 2957 2963 2969 2975 2980 2985 2989 2992 2996 2999 3001 3004 3008 3011 3013 3014 3016 3019 3023 3028 3033 3038 3044 3050 3056 3062 3066
2904 2904 2905 2907 2911 2915 2920 2926 2933 2942 2950 2956 2963 2968 2973 2979 2983 2987 2989 2993 2996 2999 3002 3004 3006 3008 3009 3010 3013 3017 3022 3027 3032 3038 3044 3048 3055 3061
2912 2912 2913 2915 2917 2920 2924 2929 2936 2945 2952 2959 2963 2968 2973 2978 2982 2984 2986 2990 2994 2996 2997 3000 3002 3003 3005 3006 3008 3012 3016 3021 3026 3032 3037 3043 3050 3055
2923 2922 2921 2922 2925 2927 2930 2936 2943 2949 2954 2958 2963 2968 2972 2976 2979 2981 2984 2987 2989 2992 2993 2994 2996 2999 3000 3000 3003 3007 3011 3016 3021 3026 3031 3037 3043 3050
2934 2932 2932 2933 2935 2938 2941 2944 2948 2951 2955 2960 2964 2967 2970 2973 2975 2977 2980 2983 2985 2987 2989 2990 2991 2993 2995 2997 2999 3002 3006 3011 3015 3020 3025 3031 3038 3045
2941 2941 2942 2942 2944 2945 2947 2950 2952 2954 2957 2959 2962 2964 2967 2969 2972 2975 2978 2980 2981 2982 2983 2984 2986 2988 2990 2992 2995 2998 3002 3006 3010 3014 3019 3025 3032 3039
2946 2946 2946 2947 2948 2948 2950 2951 2953 2954 2956 2958 2961 2963 2965 2967 2970 2972 2974 2976 2977 2977 2978 2980 2983 2986 2988 2989 2990 2994 2997 3001 3005 3010 3014 3020 3026 3033
2949 2948 2948 2948 2949 2949 2950 2951 2952 2953 2955 2957 2960 2962 2964 2966 2967 2969 2970 2972 2973 2973 2974 2977 2982 2984 2984 2985 2987 2990 2994 2997 3000 3005 3010 3016 3021 3026
2950 2950 2950 2950 2950 2950 2950 2951 2951 2952 2953 2955 2957 2959 2961 2963 2964 2965 2967 2968 2969 2969 2971 2974 2977 2979 2981 2983 2986 2988 2991 2994 2996 3000 3006 3010 3016 3020
2952 2951 2950 2949 2949 2950 2950 2951 2951 2952 2953 2954 2955 2957 2959 2960 2961 2962 2963 2963 2964 2965 2967 2970 2973 2975 2978 2980 2982 2984 2987 2990 2993 2997 3001 3006 3011 3014
Wind_Speed
43 50 59 53 53 49 45 47 42 43 40 42 44 34 30 29 24 21 21 24 30 28 31 34 35 33 31 31 32 31 32 30 33 31 29 28 31 30
34 46 46 43 49 50 46 48 27 38 41 39 40 32 32 29 29 26 22 24 28 29 31 33 34 34 33 31 32 31 31 31 33 34 31 21 25 23
35 35 39 44 48 46 48 55 40 34 37 42 36 33 31 31 29 23 25 26 29 28 30 32 33 34 33 31 32 32 31 31 32 33 32 32 23 30
28 32 36 37 43 44 44 49 51 34 43 38 39 38 36 33 28 26 23 25 30 27 29 31 32 33 32 31 31 32 32 31 31 35 33 29 31 19
28 27 30 36 35 39 41 36 39 36 36 41 37 43 37 32 29 25 25 27 29 27 28 30 31 32 32 31 31 32 31 32 33 32 33 37 30 22
27 26 25 29 32 36 37 36 36 30 38 42 43 41 34 34 30 28 26 29 25 25 27 28 30 31 32 31 32 33 32 32 34 34 32 26 20 19
26 23 22 24 29 30 35 32 38 35 39 38 37 31 30 33 32 25 24 24 22 23 25 27 29 31 31 31 31 31 32 33 33 35 35 26 29 26
20 18 18 20 27 26 44 38 27 27 30 34 34 30 32 36 31 26 23 19 19 22 22 25 29 29 31 30 30 32 33 34 37 39 36 34 28 24
12 12 14 17 23 24 41 39 36 23 24 31 30 29 31 34 28 22 21 16 14 17 18 20 26 29 31 31 31 32 33 36 37 36 38 32 31 29
5 8 12 17 20 22 37 41 30 36 24 26 26 30 32 30 24 18 20 15 15 16 17 20 23 29 30 31 31 32 34 36 39 41 38 33 30 30
3 6 12 20 18 21 30 38 36 36 30 27 27 27 33 31 27 20 23 18 18 13 13 13 16 24 29 31 32 33 34 36 39 40 42 39 35 32
5 3 10 15 17 20 27 36 37 39 33 28 29 29 33 30 24 18 20 18 19 16 14 13 13 15 22 28 29 32 34 36 38 37 38 37 41 33
4 2 7 12 17 21 27 39 36 38 34 30 30 34 32 27 26 19 22 21 20 22 21 16 15 19 20 25 29 33 35 37 39 41 45 46 37 34
6 6 9 13 18 22 25 34 33 41 36 30 32 29 29 30 22 21 23 19 17 22 24 15 18 18 23 26 29 32 35 36 36 39 41 42 41 35
13 14 14 15 18 19 24 32 41 39 33 29 33 28 23 23 20 22 22 20 16 13 30 25 24 21 20 25 28 31 32 34 35 37 38 40 39 41
20 18 16 16 16 18 21 27 35 38 27 30 25 28 26 22 21 22 26 24 20 18 22 33 30 29 25 20 23 28 31 34 35 37 38 44 42 41
23 23 22 22 21 19 21 27 29 26 31 24 22 24 24 25 23 24 28 27 25 25 23 24 36 32 26 25 21 25 30 32 34 36 38 39 41 37
21 21 25 26 24 21 17 19 18 21 24 22 21 26 25 25 25 25 27 28 27 25 25 25 25 27 27 23 23 24 28 30 32 35 36 38 39 38
12 14 15 15 15 15 15 14 14 15 18 18 20 22 24 24 24 25 26 27 27 26 25 24 22 23 24 18 23 25 26 28 31 34 35 37 39 39
10 7 7 5 4 7 10 11 12 15 17 19 19 19 20 20 22 24 23 20 21 21 21 19 16 14 15 20 23 23 24 27 31 33 34 32 31 34
4 4 4 3 2 2 7 9 10 14 18 18 18 15 13 16 16 18 23 24 23 19 17 19 17 14 12 16 21 20 17 20 30 31 31 34 34 37
0 2 1 2 2 3 5 7 8 11 15 20 20 18 16 17 17 17 21 25 22 19 17 24 24 21 11 15 17 18 19 19 25 29 35 39 33 35
10 6 4 1 2 2 3 4 6 9 13 17 17 18 17 17 18 18 17 20 22 19 19 21 28 23 16 19 20 18 24 21 22 29 28 28 35 36
Wind_Direction
258 249 248 245 243 243 249 243 243 239 232 231 222 224 227 232 234 241 239 244 238 241 237 232 228 225 221 219 220 220 219 218 217 220 229 236 239 244
262 247 243 245 245 243 245 226 223 236 234 220 217 221 222 231 241 248 247 252 242 237 236 230 226 224 222 218 218 219 218 215 214 212 214 227 214 228
264 259 253 251 251 249 244 232 218 223 230 227 220 214 222 243 250 255 262 259 243 235 232 226 224 223 222 219 218 218 217 215 212 216 230 235 232 220
270 262 253 250 243 236 233 226 217 228 220 218 221 216 225 238 242 250 259 258 235 234 228 223 220 221 221 219 218 216 216 214 214 208 215 228 237 203
271 267 258 247 242 232 229 216 220 219 215 217 216 211 214 226 235 248 250 258 230 228 225 220 218 218 219 217 217 215 214 212 213 212 213 209 226 251
274 272 261 248 236 230 223 205 221 219 201 196 195 203 214 229 236 239 242 248 228 223 221 219 217 217 218 217 216 215 213 211 210 213 210 217 229 226
275 268 255 241 226 223 207 202 209 198 209 212 205 214 219 225 227 227 240 238 225 222 215 216 216 216 218 219 216 215 212 209 208 202 209 217 215 212
269 258 245 230 219 213 202 200 174 188 191 195 208 215 221 221 215 225 243 240 223 220 217 213 216 215 216 215 214 213 212 208 208 209 205 210 223 217
263 244 230 214 210 209 212 204 196 162 190 196 205 213 219 207 206 218 233 210 219 219 218 216 216 214 213 214 214 214 212 209 207 209 204 211 212 211
266 224 215 192 204 204 210 203 198 203 193 192 202 211 193 195 200 219 194 198 208 213 216 216 212 213 212 213 213 214 212 211 208 204 201 204 209 214
290 225 202 196 201 199 199 205 202 197 192 189 198 207 196 205 214 218 194 202 201 217 211 207 214 214 213 212 213 213 212 211 211 209 213 208 211 214
9 185 186 192 195 192 190 182 190 194 195 196 203 195 195 200 207 210 200 207 206 199 184 210 225 224 217 213 213 216 214 213 210 206 202 200 206 211
348 126 168 174 180 184 185 183 188 191 194 197 200 190 193 204 215 209 202 204 222 196 190 203 214 234 226 216 214 213 214 213 212 207 205 210 217 216
58 99 133 157 169 173 177 183 184 188 189 193 183 191 197 201 210 202 211 209 218 211 191 196 212 230 240 227 218 216 212 214 212 213 215 213 214 209
82 99 118 135 149 165 172 179 184 187 187 193 185 192 180 194 211 215 214 208 210 225 204 203 212 224 234 232 219 219 214 213 212 214 216 212 208 212
80 89 107 124 141 154 167 173 180 186 186 172 180 195 199 205 220 222 218 212 212 225 222 219 221 227 240 239 219 216 215 213 212 213 212 207 214 205
80 87 95 107 113 119 144 154 165 179 178 183 194 201 206 214 224 223 220 224 231 235 244 233 228 235 235 232 217 212 214 214 213 212 213 215 214 219
81 92 93 96 91 98 116 151 167 171 178 190 198 208 218 229 226 223 224 228 236 242 241 243 244 242 242 230 219 209 211 212 212 211 210 214 210 214
90 94 105 112 120 135 147 160 174 182 191 200 206 213 219 215 215 220 223 233 241 242 245 243 246 235 237 224 217 215 208 208 210 210 209 209 210 216
73 90 115 127 145 168 178 184 192 195 200 200 201 207 211 214 219 225 232 233 239 242 240 235 227 229 247 248 211 211 208 207 209 211 212 214 213 217
44 75 103 119 112 182 196 203 214 217 215 212 207 202 212 219 227 230 219 229 240 246 237 210 199 232 252 239 211 209 202 219 212 211 203 208 218 209
189 231 252 286 289 253 229 221 218 210 207 203 203 197 217 231 233 234 233 242 251 241 234 203 196 220 247 247 217 228 203 201 213 212 212 212 216 217
19 3 359 342 196 192 228 245 234 224 220 216 219 218 225 238 245 245 248 253 252 244 222 206 209 215 232 225 237 232 211 219 219 213 200 213 211 216